星链-4364 (STARLINK-4364 )

导读

STARLINK-4364是美国太空探索技术公司(SpaceX)星链(Starlink)项目的卫星,于北京时间2022年7月22日8时成功发射。作为星链全球卫星互联网星座的组成部分,它运行在近地轨道,旨在为全球偏远地区提供低延迟、高速宽带互联网服务,支撑星链项目在超60个国家和地区落地服务的网络架构,助力完成四万两千余颗卫星的星座组网计划。

Basic Information
目录编号:
53230
目录名称:
STARLINK-4364
国际标识:
2022-084AT
轨道中心:
EARTH
卫星名称:
星链-4364
卫星全名:
星链-4364 (STARLINK-4364 )
卫星状态:
在轨 (已飞行1506 天)
发射日期:
2022-07-22 UTC
国别 :
美国 (US)
星等 :
--
Orbit Information
数据来源 国际轨道数据
星历时间: 2026-09-05T14:00:02+0800
9小时前
查看轨道信息
半长轴: 6872.367km
偏心率: 0.0001486
轨道倾角: 97.285°
近地点辐角 82.003°
升交点赤经 304.230°
平近点角 148.247°
近地点: 493.208km
远地点: 495.252km
周期: 94.497分钟
每日圈数: 15.238538
Detailed Information
固有亮度:
5
最大亮度:
2.5
卫星平台:
Starlink v1.5
覆盖范围:
全球
运营商:
太空探索技术公司
运营商所在国:
美国
制造商(研发单位):
太空探索技术公司
制造商所在国:
美国
使用方式:
暂无
Satellite Introduction
星链(Starlink)计划是由太空探索技术公司(SpaceX)提出的一个巨型低轨卫星互联网星座项目,计划在2019年至2024年间在太空搭建由约1.2万颗卫星组成的“星链”网络,其中1584颗将部署在地球上空550千米处的近地轨道,并从2020年开始工作。该卫星仍在工作。
2D Orbit Map
3D Orbit Map
Orbit Altitude Analysis Chart
Orbit Inclination Analysis Chart
Orbit Comprehensive Analysis Chart
View Comprehensive Chart
Conjunction Data List
Event ID Objects TCA Miss Dist (km) Collision Risk Probability Collision Risk Index (CRI) Action
CDM_260905-234205-323006-323621
2026-09-05T
23:42:33+0000
1.852 km
极远距离
3.541115E-6 低风险 0.46
CDM_260905-203505-323006-094621
2026-09-05T
20:35:50+0000
1.797 km
极远距离
3.356829E-6 低风险 0.46
CDM_260906-025305-323006-161821
2026-09-06T
02:53:57+0000
2.384 km
极远距离
1.690651E-6 低风险 0.4
CDM_260906-034105-323006-161821
2026-09-06T
03:41:09+0000
2.890 km
极远距离
1.242797E-6 低风险 0.37
CDM_260906-103105-323006-454921
2026-09-06T
10:31:12+0000
2.639 km
极远距离
1.084327E-6 低风险 0.36
CDM_260907-221005-323006-718621
2026-09-07T
22:10:08+0000
2.916 km
极远距离
1.046435E-6 低风险 0.35